[[{"header":{"parameterUnit":"m.s-1","parameterCategory":1,"la1":30.2991,"la2":30.254,"lo1":-89.0895,"lo2":-89.0444,"dy":0.0017,"dx":0.0017,"nx":28,"ny":28,"refTime":"2024-07-22T21:00:00:Z","depth":0,"parameterNumber":2,"parameterNumberName":"U-component_of_WINDS"},"data":[0,0,0,0,0,0,0,0,0,0,0,0,0,0,0,0,0,0,0,0,0,0,0,0,0,0,0,0,0,0,0,0,0,0,0,0,0,0,0,0,0,0,0,0,0,0,0,0,0,0,0,0,0,0,0,0,0,0,3.1563,3.1563,0,3.1543,3.1542,3.1542,3.1464,3.1463,3.1461,3.1459,3.1439,3.144,3.1441,0,0,0,0,0,0,0,0,0,0,0,0,0,3.1536,3.1537,3.1563,3.1563,3.1563,3.1543,3.1542,3.1542,3.1465,3.1462,3.146,3.1458,3.1439,3.144,3.1441,0,0,0,0,0,0,0,0,0,0,0,0,0,3.1535,3.1538,3.1563,3.1522,3.1518,3.1543,3.1542,3.1542,3.1465,3.1462,3.146,3.1457,3.1438,3.144,3.1442,3.1505,0,0,3.1447,3.1447,0,0,0,0,0,0,0,0,3.1535,3.1536,3.1528,3.1525,3.152,3.1503,3.1525,3.153,3.1466,3.1485,3.1459,3.1456,3.1463,3.1462,3.1464,3.1504,3.1504,3.1447,3.1448,3.1449,3.1449,0,0,0,0,0,0,0,3.1536,3.1537,3.1555,3.1528,3.1523,3.1504,3.1501,3.1526,3.1489,3.1483,3.1478,3.1476,3.146,3.1463,3.1463,3.1503,3.1447,3.1448,3.1449,3.145,3.1592,3.1594,0,0,0,0,0,0,3.1542,3.1537,3.1556,3.1554,3.1521,3.1507,3.1503,3.1511,3.1489,3.1483,3.1478,3.1473,3.1461,3.1461,3.1462,3.1533,3.1449,3.145,3.1451,3.1589,3.1592,3.1595,0,0,0,0,0,0,3.1541,3.1544,3.1557,3.1544,3.1544,3.151,3.152,3.1512,3.1515,3.1485,3.1478,3.1488,3.1459,3.146,3.1494,3.1531,3.1451,3.1453,3.1586,3.159,3.1594,3.1676,0,0,0,0,0,0,3.1541,3.1544,3.1568,3.1545,3.1545,3.1589,3.1522,3.1514,3.1518,3.151,3.1492,3.1486,3.1457,3.1492,3.1496,3.1532,3.1454,3.1582,3.1588,3.1593,3.167,3.1683,3.1693,0,0,0,0,0,3.154,3.1593,3.157,3.1572,3.1575,3.1592,3.1592,3.1556,3.1521,3.1545,3.1525,3.1487,3.1527,3.1497,3.15,3.1537,3.158,3.1586,3.1592,3.1665,3.168,3.1693,0,0,0,0,0,0,3.1622,3.1589,3.1563,3.161,3.1604,3.1579,3.1607,3.1574,3.1578,3.1571,3.1528,3.1524,3.1564,3.1555,3.1521,3.1596,3.1547,3.1554,3.1601,3.1615,3.1627,3.1627,3.1455,0,0,0,0,0,3.1645,3.1662,3.1633,3.1677,3.1675,3.1642,3.1648,3.1621,3.1614,3.1611,3.1594,3.1588,3.1598,3.1607,3.1615,3.1669,3.1662,3.1696,3.1708,3.1717,3.1723,3.1748,3.1762,3.1616,3.1616,3.1616,0,0,3.1694,3.1678,3.1692,3.1693,3.1685,3.1703,3.164,3.1662,3.1674,3.1614,3.1645,3.1632,3.1623,3.1666,3.1685,3.1659,3.1763,3.1725,3.1733,3.1734,3.1756,3.177,3.1782,3.162,3.1619,3.1618,0,0,3.1791,3.1782,3.1816,3.1809,3.1798,3.1775,3.1784,3.1763,3.1751,3.1782,3.1736,3.175,3.1771,3.1765,3.1765,3.1858,3.1822,3.1863,3.1923,3.1948,3.1959,3.1969,3.2,3.2012,3.1869,3.1869,3.187,0,3.1853,3.1877,3.1839,3.1862,3.1863,3.1809,3.1843,3.1839,3.1831,3.1833,3.1805,3.1827,3.1817,3.1857,3.188,3.1883,3.189,3.1863,3.1961,3.197,3.1979,3.2008,3.202,3.1874,3.1874,3.1873,3.1873,0,3.1952,3.197,3.1999,3.1991,3.1996,3.2026,3.1991,3.2001,3.1974,3.1954,3.1984,3.197,3.1974,3.1982,3.1957,3.2018,3.2002,3.1968,3.1917,3.1998,3.2024,3.2035,3.1881,3.1879,3.1878,3.1877,0,0,3.21,3.2069,3.208,3.2075,3.2058,3.2071,3.2097,3.21,3.2107,3.2105,3.2124,3.2142,3.2109,3.2109,3.2083,3.2105,3.2177,3.2068,3.2067,3.2086,3.2241,3.2264,3.2278,3.2154,3.2156,3.2157,3.224,0,3.2189,3.2231,3.2197,3.2245,3.2259,3.2208,3.2231,3.2222,3.2205,3.2214,3.2195,3.2207,3.2165,3.2164,3.2184,3.2164,3.2207,3.2158,3.217,3.2171,3.2171,3.2292,3.2318,3.2397,3.2251,3.2253,3.2254,0,3.23,3.2299,3.2349,3.2326,3.2331,3.2352,3.235,3.2361,3.235,3.2335,3.2335,3.2301,3.2325,3.2277,3.2307,3.2275,3.2278,3.2269,3.2271,3.2269,3.2216,3.229,3.2421,3.2432,3.227,3.2269,3.2268,0,3.2398,3.2411,3.2441,3.2439,3.2414,3.2429,3.242,3.2407,3.241,3.2409,3.241,3.2413,3.2414,3.2416,3.2384,3.2353,3.2418,3.2368,3.2405,3.2406,3.2419,3.2419,3.255,3.2427,3.2426,3.2426,3.2426,0,3.2501,3.2532,3.2484,3.2503,3.2536,3.2497,3.2531,3.2516,3.2505,3.2519,3.2476,3.249,3.2448,3.2458,3.2434,3.2461,3.2463,3.2451,3.2443,3.2453,3.2454,3.2452,3.2445,3.2429,3.2429,3.2428,3.2427,0,3.2616,3.2585,3.2614,3.2588,3.2582,3.2608,3.2585,3.2601,3.258,3.2599,3.2601,3.2569,3.2578,3.2546,3.2551,3.2534,3.2574,3.2559,3.2577,3.2572,3.261,3.2605,3.2742,3.2757,3.2627,3.2629,3.263,0,3.2682,3.2704,3.268,3.2686,3.2678,3.2689,3.2691,3.2653,3.2658,3.2646,3.2663,3.2669,3.267,3.2687,3.2664,3.2667,3.265,3.2698,3.265,3.2658,3.2647,3.2645,3.2646,3.2707,3.2709,3.271,3.2711,0,3.2801,3.2784,3.2789,3.2788,3.2792,3.279,3.2785,3.2793,3.2752,3.2759,3.2767,3.2768,3.2772,3.2777,3.2775,3.2765,3.2731,3.2727,3.2735,3.2743,3.2752,3.2745,3.2601,3.2723,3.2722,3.2721,3.272,3.272,3.2891,3.2908,3.2893,3.2899,3.2891,3.2887,3.2899,3.288,3.2886,3.2885,3.2863,3.2875,3.2862,3.2855,3.2848,3.2857,3.2835,3.2847,3.285,3.2853,3.2858,3.2753,3.2857,3.2857,3.2856,3.2856,3.2856,0,3.3005,3.2993,3.2999,3.2992,3.2997,3.2965,3.2957,3.2963,3.2974,3.2965,3.2967,3.2976,3.2981,3.2958,3.2959,3.297,3.2954,3.2971,3.2969,3.2966,3.288,3.2871,3.2984,3.2984,3.2984,3.2984,3.2984,3.2984,3.3065,3.3091,3.3072,3.3093,3.3081,3.3091,3.3089,3.3085,3.3077,3.3088,3.3091,3.3076,3.3061,3.306,3.3063,3.3056,3.3057,3.3079,3.3067,3.2985,3.2973,3.2961,3.2952,3.3081,3.3081,3.3152,3.3153,3.3153]},{"header":{"parameterUnit":"m.s-1","parameterCategory":1,"la1":30.2991,"la2":30.254,"lo1":-89.0895,"lo2":-89.0444,"dy":0.0017,"dx":0.0017,"nx":28,"ny":28,"refTime":"2024-07-22T21:00:00:Z","depth":0,"parameterNumber":3,"parameterNumberName":"V-component_of_WINDS"},"data":[0,0,0,0,0,0,0,0,0,0,0,0,0,0,0,0,0,0,0,0,0,0,0,0,0,0,0,0,0,0,0,0,0,0,0,0,0,0,0,0,0,0,0,0,0,0,0,0,0,0,0,0,0,0,0,0,0,0,2.1034,2.1036,0,2.1189,2.1191,2.1193,2.1211,2.121,2.1208,2.1207,2.1359,2.1364,2.1369,0,0,0,0,0,0,0,0,0,0,0,0,0,2.0746,2.0751,2.1034,2.1036,2.1038,2.1189,2.1191,2.1193,2.1211,2.1209,2.1208,2.1206,2.1357,2.1363,2.137,0,0,0,0,0,0,0,0,0,0,0,0,0,2.0883,2.0753,2.1034,2.1065,2.107,2.1188,2.1191,2.1194,2.1212,2.1209,2.1207,2.1205,2.1355,2.1363,2.1371,2.1466,0,0,2.1396,2.1399,0,0,0,0,0,0,0,0,2.0875,2.0893,2.1059,2.1063,2.1069,2.1179,2.1145,2.1285,2.1212,2.1158,2.1207,2.1204,2.13,2.1313,2.1346,2.1473,2.148,2.1396,2.1401,2.1405,2.1407,0,0,0,0,0,0,0,2.0866,2.0887,2.1095,2.1061,2.1067,2.1069,2.1086,2.1172,2.1239,2.1162,2.1164,2.1182,2.1302,2.1338,2.135,2.1482,2.1396,2.1403,2.1408,2.1412,2.1693,2.1695,0,0,0,0,0,0,2.0851,2.0879,2.109,2.11,2.0965,2.1076,2.1095,2.1145,2.1239,2.1251,2.1184,2.1183,2.1326,2.134,2.1355,2.1473,2.1405,2.1412,2.1417,2.169,2.1693,2.1696,0,0,0,0,0,0,2.0845,2.087,2.1084,2.099,2.1017,2.1084,2.114,2.115,2.1186,2.1255,2.1267,2.1209,2.1324,2.1344,2.1439,2.1478,2.1416,2.1423,2.1687,2.1691,2.1695,2.1708,0,0,0,0,0,0,2.0837,2.0868,2.0907,2.0991,2.1022,2.1167,2.1142,2.1154,2.1201,2.12,2.1282,2.1293,2.1324,2.1426,2.1447,2.1488,2.143,2.1684,2.1689,2.1693,2.1704,2.1712,2.1718,0,0,0,0,0,2.0826,2.0903,2.0909,2.0934,2.1073,2.1169,2.1187,2.1223,2.1204,2.1242,2.1286,2.129,2.147,2.1436,2.1459,2.1504,2.1681,2.1687,2.1693,2.1701,2.171,2.1718,0,0,0,0,0,0,2.082,2.0915,2.0922,2.1029,2.1091,2.1172,2.1222,2.1232,2.1299,2.1296,2.1336,2.1354,2.1446,2.1484,2.1444,2.16,2.1574,2.1584,2.1572,2.1581,2.1588,2.1577,2.1437,0,0,0,0,0,2.0832,2.0905,2.0982,2.1069,2.11,2.1156,2.1199,2.1221,2.1286,2.1312,2.1363,2.1424,2.1494,2.154,2.1608,2.1709,2.1726,2.1751,2.1758,2.1764,2.1772,2.1827,2.1838,2.1715,2.1715,2.1715,0,0,2.0855,2.0916,2.0959,2.1069,2.112,2.1192,2.1178,2.1255,2.1308,2.1323,2.1416,2.1455,2.1526,2.1624,2.167,2.1658,2.181,2.1771,2.1775,2.1781,2.1834,2.1846,2.1856,2.1719,2.1718,2.1718,0,0,2.0936,2.099,2.1067,2.1119,2.1197,2.1233,2.1251,2.1331,2.1358,2.1453,2.1465,2.1527,2.1648,2.1697,2.1738,2.1834,2.184,2.1855,2.1892,2.1944,2.1954,2.1963,2.1996,2.2008,2.1864,2.1864,2.1864,0,2.0955,2.1067,2.1105,2.1183,2.1229,2.1248,2.1325,2.1372,2.1467,2.1498,2.1485,2.1635,2.1684,2.1793,2.1817,2.1849,2.187,2.1847,2.195,2.1959,2.1968,2.2,2.2013,2.1865,2.1865,2.1865,2.1865,0,2.1086,2.1163,2.1215,2.1309,2.1362,2.1438,2.1486,2.1534,2.1551,2.1587,2.1681,2.1741,2.1821,2.1848,2.1865,2.1959,2.1949,2.1942,2.1917,2.1981,2.2011,2.2024,2.1867,2.1866,2.1866,2.1866,0,0,2.1168,2.1281,2.13,2.1342,2.1428,2.1487,2.1563,2.1643,2.1683,2.1747,2.181,2.1911,2.1905,2.1951,2.1973,2.2019,2.2091,2.2007,2.2009,2.202,2.2196,2.2201,2.2215,2.2094,2.2097,2.2099,2.219,0,2.1258,2.1397,2.1433,2.155,2.1621,2.1638,2.1704,2.1762,2.1798,2.186,2.1898,2.1969,2.1956,2.1984,2.203,2.2072,2.2126,2.2066,2.2152,2.2154,2.2134,2.2231,2.2237,2.232,2.2202,2.2204,2.2206,0,2.1382,2.1451,2.1576,2.1652,2.1682,2.1741,2.1817,2.1877,2.1942,2.1965,2.2016,2.2033,2.211,2.208,2.2185,2.2143,2.2179,2.2205,2.2209,2.2218,2.2184,2.2243,2.2348,2.236,2.2225,2.2224,2.2222,0,2.1429,2.1552,2.1643,2.1678,2.1769,2.181,2.1849,2.1912,2.1958,2.2022,2.2052,2.2123,2.2163,2.2217,2.2252,2.2227,2.2353,2.2327,2.2372,2.2371,2.2398,2.2396,2.251,2.2422,2.2422,2.2421,2.2421,0,2.1526,2.1601,2.1665,2.1721,2.1804,2.1843,2.1924,2.1964,2.2019,2.2081,2.2099,2.2155,2.2199,2.226,2.2287,2.2369,2.2387,2.2405,2.2412,2.2404,2.2402,2.2429,2.2424,2.2425,2.2424,2.2423,2.2423,0,2.1593,2.1639,2.1738,2.1816,2.1837,2.1896,2.1961,2.2014,2.2049,2.2127,2.2147,2.2202,2.2275,2.2315,2.2406,2.2425,2.2516,2.2519,2.2495,2.2498,2.2541,2.2536,2.2676,2.2696,2.2594,2.2595,2.2596,0,2.1652,2.1711,2.1795,2.1839,2.1879,2.1949,2.1995,2.2035,2.2082,2.216,2.2202,2.2277,2.2339,2.2455,2.2501,2.257,2.2575,2.2619,2.2586,2.2575,2.2575,2.2571,2.2577,2.2625,2.2626,2.2627,2.2628,0,2.1751,2.1771,2.1839,2.1915,2.197,2.2031,2.2091,2.2124,2.2173,2.2224,2.2301,2.2349,2.2442,2.2515,2.2588,2.2625,2.2634,2.2638,2.2652,2.2645,2.2628,2.2637,2.2511,2.2635,2.2634,2.2633,2.2633,2.2633,2.1816,2.1869,2.1936,2.2011,2.206,2.2115,2.2169,2.2211,2.2276,2.2357,2.2375,2.2455,2.2516,2.2615,2.2654,2.2715,2.2706,2.2727,2.2732,2.2736,2.2738,2.2618,2.2728,2.2728,2.2728,2.2728,2.2728,0,2.1916,2.196,2.2028,2.2113,2.217,2.2175,2.2241,2.2288,2.2359,2.2417,2.2477,2.2563,2.2634,2.2685,2.2757,2.2795,2.2801,2.2813,2.281,2.2818,2.2742,2.2723,2.2807,2.2807,2.2807,2.2807,2.2807,2.2807,2.1975,2.2064,2.2091,2.2203,2.2246,2.2327,2.2364,2.2413,2.2459,2.2556,2.2615,2.2649,2.2703,2.2778,2.2842,2.2855,2.288,2.2891,2.2904,2.2832,2.2824,2.2816,2.2798,2.2896,2.2897,2.2976,2.2976,2.2977]}]]